QPF
0.02 0.03 0.04 0.05 0.06 0.08 0.10 0.09 0.09 0.09 0.08 0.06 0.06 0.06 0.05 0.03 0.03 0.02 0.02 0.02 0.02 0.03 0.02 0.03 0.03 0.05 0.07 0.09 0.11 0.12 0.14 0.18 0.15 0.10 0.09 0.10 0.11 0.12 0.11 0.12 0.07 0.04 0.03
0.01 0.01 0.02 0.03 0.03 0.04 0.05 0.07 0.08 0.08 0.08 0.08 0.08 0.08 0.07 0.06 0.05 0.04 0.02 0.02 0.02 0.02 0.02 0.03 0.04 0.05 0.07 0.09 0.10 0.11 0.14 0.16 0.15 0.12 0.10 0.11 0.11 0.14 0.12 0.12 0.09 0.06 0.04
0.01 0.01 0.01 0.02 0.02 0.03 0.03 0.05 0.06 0.07 0.08 0.09 0.10 0.09 0.08 0.07 0.07 0.05 0.04 0.03 0.02 0.02 0.03 0.03 0.04 0.05 0.06 0.08 0.09 0.10 0.12 0.14 0.16 0.13 0.13 0.14 0.16 0.16 0.15 0.14 0.11 0.09 0.06
0.01 0.01 0.01 0.01 0.01 0.01 0.02 0.03 0.04 0.06 0.08 0.09 0.10 0.10 0.10 0.09 0.07 0.06 0.04 0.03 0.02 0.02 0.02 0.03 0.04 0.05 0.06 0.07 0.08 0.10 0.12 0.12 0.12 0.12 0.14 0.15 0.21 0.21 0.15 0.12 0.12 0.11 0.09
0.00 0.00 0.01 0.01 0.01 0.01 0.01 0.02 0.03 0.05 0.06 0.09 0.10 0.11 0.11 0.10 0.07 0.07 0.06 0.04 0.02 0.02 0.01 0.02 0.02 0.04 0.05 0.06 0.08 0.10 0.11 0.11 0.10 0.12 0.12 0.14 0.19 0.24 0.16 0.10 0.08 0.09 0.08
0.00 0.00 0.00 0.00 0.00 0.01 0.01 0.01 0.02 0.03 0.05 0.07 0.09 0.10 0.11 0.09 0.08 0.05 0.04 0.03 0.03 0.02 0.01 0.01 0.01 0.02 0.03 0.03 0.05 0.08 0.11 0.12 0.13 0.13 0.13 0.14 0.15 0.18 0.16 0.11 0.08 0.06 0.06
0.00 0.00 0.00 0.00 0.00 0.00 0.00 0.00 0.01 0.02 0.03 0.05 0.07 0.08 0.10 0.11 0.08 0.04 0.03 0.03 0.03 0.02 0.01 0.01 0.02 0.02 0.03 0.03 0.04 0.05 0.07 0.11 0.15 0.17 0.17 0.17 0.16 0.15 0.14 0.11 0.09 0.06 0.05
0.00 0.00 0.00 0.00 0.00 0.00 0.01 0.01 0.02 0.02 0.03 0.04 0.06 0.08 0.10 0.13 0.10 0.07 0.04 0.03 0.03 0.03 0.02 0.02 0.03 0.03 0.04 0.04 0.05 0.05 0.05 0.06 0.10 0.13 0.15 0.14 0.13 0.12 0.11 0.11 0.09 0.07 0.06
0.00 0.00 0.00 0.01 0.01 0.01 0.01 0.02 0.02 0.03 0.03 0.03 0.04 0.06 0.09 0.13 0.13 0.10 0.08 0.05 0.04 0.03 0.03 0.02 0.03 0.04 0.04 0.04 0.05 0.05 0.04 0.05 0.07 0.10 0.11 0.13 0.13 0.10 0.09 0.08 0.08 0.05 0.04
0.00 0.00 0.01 0.01 0.02 0.02 0.02 0.03 0.03 0.04 0.03 0.03 0.04 0.06 0.08 0.12 0.15 0.13 0.11 0.08 0.07 0.05 0.03 0.02 0.02 0.03 0.04 0.04 0.05 0.05 0.04 0.04 0.05 0.08 0.09 0.10 0.11 0.10 0.07 0.06 0.05 0.04 0.03
0.00 0.01 0.01 0.02 0.02 0.02 0.03 0.05 0.06 0.05 0.05 0.05 0.05 0.06 0.09 0.13 0.16 0.15 0.14 0.13 0.11 0.10 0.05 0.03 0.02 0.03 0.03 0.03 0.04 0.04 0.04 0.03 0.03 0.05 0.07 0.07 0.07 0.07 0.07 0.06 0.04 0.03 0.02
0.01 0.02 0.02 0.03 0.02 0.01 0.04 0.07 0.07 0.07 0.06 0.06 0.08 0.09 0.11 0.14 0.17 0.18 0.18 0.17 0.17 0.16 0.10 0.05 0.03 0.03 0.04 0.03 0.04 0.04 0.04 0.04 0.03 0.03 0.04 0.05 0.05 0.05 0.05 0.04 0.03 0.01 0.01
0.03 0.03 0.04 0.04 0.04 0.04 0.06 0.07 0.07 0.08 0.08 0.07 0.09 0.10 0.14 0.17 0.20 0.22 0.23 0.22 0.21 0.21 0.14 0.07 0.04 0.03 0.04 0.03 0.04 0.03 0.02 0.02 0.03 0.02 0.03 0.04 0.04 0.03 0.02 0.01 0.01 0.00 0.00
0.05 0.05 0.06 0.06 0.05 0.06 0.08 0.08 0.07 0.08 0.09 0.09 0.11 0.11 0.13 0.19 0.24 0.28 0.28 0.27 0.24 0.20 0.15 0.08 0.05 0.04 0.04 0.03 0.03 0.02 0.01 0.02 0.02 0.02 0.02 0.02 0.02 0.02 0.01 0.01 0.00 0.00 0.00
0.06 0.06 0.06 0.06 0.06 0.06 0.07 0.07 0.07 0.07 0.08 0.08 0.10 0.10 0.12 0.18 0.25 0.31 0.34 0.33 0.29 0.23 0.16 0.08 0.04 0.03 0.02 0.02 0.01 0.01 0.01 0.01 0.01 0.01 0.01 0.01 0.01 0.01 0.01 0.00 0.00 0.00 0.00
0.07 0.07 0.07 0.07 0.07 0.07 0.07 0.06 0.04 0.02 0.02 0.02 0.04 0.06 0.10 0.13 0.20 0.26 0.29 0.29 0.31 0.30 0.20 0.10 0.04 0.02 0.01 0.01 0.01 0.01 0.01 0.01 0.01 0.01 0.01 0.00 0.00 0.00 0.00 0.00 0.00 0.00 0.00
0.08 0.09 0.09 0.08 0.08 0.07 0.07 0.07 0.06 0.05 0.05 0.04 0.03 0.03 0.06 0.11 0.19 0.23 0.26 0.27 0.27 0.29 0.22 0.12 0.05 0.03 0.01 0.01 0.00 0.00 0.00 0.00 0.00 0.00 0.00 0.00 0.00 0.00 0.00 0.00 0.00 0.00 0.00
0.09 0.08 0.08 0.07 0.07 0.07 0.07 0.08 0.09 0.10 0.10 0.10 0.08 0.05 0.06 0.09 0.16 0.20 0.22 0.26 0.26 0.23 0.16 0.11 0.07 0.03 0.01 0.01 0.00 0.00 0.00 0.00 0.00 0.00 0.00 0.00 0.00 0.00 0.00 0.00 0.00 0.00 0.00
0.09 0.08 0.08 0.07 0.06 0.06 0.07 0.08 0.10 0.12 0.13 0.12 0.12 0.09 0.08 0.11 0.15 0.18 0.19 0.20 0.18 0.15 0.10 0.08 0.06 0.03 0.01 0.01 0.00 0.00 0.00 0.00 0.00 0.00 0.00 0.00 0.00 0.00 0.00 0.00 0.00 0.00 0.00
0.08 0.08 0.08 0.07 0.06 0.06 0.07 0.09 0.12 0.14 0.15 0.14 0.13 0.12 0.10 0.11 0.14 0.18 0.17 0.15 0.13 0.09 0.07 0.05 0.04 0.02 0.01 0.00 0.00 0.00 0.00 0.00 0.00 0.00 0.00 0.00 0.00 0.00 0.00 0.00 0.00 0.00 0.00
0.10 0.08 0.07 0.06 0.06 0.07 0.09 0.10 0.12 0.13 0.14 0.13 0.13 0.12 0.11 0.10 0.12 0.12 0.12 0.11 0.09 0.06 0.06 0.04 0.03 0.02 0.01 0.00 0.00 0.00 0.00 0.00 0.00 0.00 0.00 0.00 0.00 0.00 0.00 0.00 0.00 0.00 0.00
0.10 0.09 0.08 0.07 0.08 0.09 0.10 0.11 0.13 0.14 0.13 0.12 0.12 0.11 0.09 0.10 0.10 0.08 0.07 0.07 0.06 0.04 0.03 0.03 0.02 0.02 0.01 0.00 0.00 0.00 0.00 0.00 0.00 0.00 0.00 0.00 0.00 0.00 0.00 0.00 0.00 0.00 0.00
0.10 0.07 0.07 0.07 0.08 0.08 0.08 0.11 0.12 0.13 0.13 0.12 0.11 0.11 0.09 0.09 0.08 0.06 0.06 0.06 0.05 0.04 0.02 0.02 0.02 0.01 0.01 0.00 0.00 0.00 0.00 0.00 0.00 0.00 0.00 0.00 0.00 0.00 0.00 0.00 0.00 0.00 0.00
0.09 0.07 0.07 0.08 0.07 0.07 0.08 0.10 0.12 0.13 0.13 0.11 0.10 0.10 0.09 0.09 0.07 0.05 0.05 0.05 0.05 0.03 0.02 0.02 0.01 0.01 0.00 0.00 0.00 0.00 0.00 0.00 0.00 0.00 0.00 0.00 0.00 0.00 0.00 0.00 0.00 0.00 0.00
0.07 0.08 0.09 0.09 0.07 0.07 0.10 0.12 0.14 0.15 0.13 0.11 0.10 0.10 0.09 0.08 0.06 0.05 0.04 0.04 0.04 0.03 0.02 0.01 0.01 0.00 0.00 0.00 0.00 0.00 0.00 0.00 0.00 0.00 0.00 0.00 0.00 0.00 0.00 0.00 0.00 0.00 0.00
0.09 0.09 0.09 0.08 0.07 0.08 0.10 0.12 0.13 0.13 0.12 0.11 0.09 0.09 0.09 0.08 0.07 0.04 0.03 0.03 0.03 0.02 0.01 0.01 0.01 0.00 0.00 0.00 0.00 0.00 0.00 0.00 0.00 0.00 0.00 0.00 0.00 0.00 0.00 0.00 0.00 0.00 0.00
MSLP
1010.12 1010.02 1009.97 1009.94 1009.90 1009.81 1009.68 1009.49 1009.24 1008.94 1008.62 1008.29 1007.96 1007.65 1007.38 1007.15 1006.98 1006.85 1006.78 1006.73 1006.70 1006.65 1006.55 1006.39 1006.14 1005.83 1005.45 1005.05 1004.69 1004.41 1004.26 1004.27 1004.45 1004.80 1005.26 1005.79 1006.32 1006.81 1007.20 1007.47 1007.65 1007.76 1007.83
1010.19 1010.05 1009.95 1009.87 1009.78 1009.66 1009.49 1009.26 1008.99 1008.66 1008.30 1007.93 1007.56 1007.21 1006.91 1006.66 1006.46 1006.33 1006.26 1006.21 1006.18 1006.11 1005.99 1005.78 1005.49 1005.11 1004.68 1004.23 1003.84 1003.55 1003.42 1003.48 1003.74 1004.19 1004.77 1005.44 1006.13 1006.76 1007.29 1007.72 1008.03 1008.25 1008.43
1010.08 1009.91 1009.76 1009.63 1009.50 1009.35 1009.16 1008.93 1008.64 1008.32 1007.96 1007.58 1007.19 1006.83 1006.50 1006.23 1006.03 1005.89 1005.81 1005.76 1005.72 1005.64 1005.50 1005.27 1004.94 1004.53 1004.05 1003.58 1003.17 1002.87 1002.76 1002.86 1003.18 1003.69 1004.37 1005.14 1005.94 1006.69 1007.35 1007.89 1008.32 1008.66 1008.95
1009.81 1009.60 1009.41 1009.25 1009.08 1008.92 1008.73 1008.51 1008.25 1007.94 1007.61 1007.24 1006.86 1006.50 1006.16 1005.88 1005.67 1005.52 1005.42 1005.37 1005.33 1005.25 1005.11 1004.88 1004.55 1004.14 1003.67 1003.20 1002.79 1002.51 1002.41 1002.53 1002.88 1003.43 1004.15 1004.97 1005.82 1006.64 1007.37 1007.99 1008.51 1008.93 1009.30
1009.40 1009.16 1008.94 1008.75 1008.57 1008.40 1008.23 1008.04 1007.81 1007.55 1007.25 1006.91 1006.55 1006.19 1005.86 1005.56 1005.33 1005.17 1005.07 1005.02 1004.99 1004.93 1004.82 1004.63 1004.34 1003.98 1003.55 1003.12 1002.76 1002.51 1002.43 1002.56 1002.91 1003.46 1004.17 1004.98 1005.82 1006.64 1007.38 1008.03 1008.58 1009.05 1009.48
1008.85 1008.60 1008.37 1008.16 1007.98 1007.83 1007.68 1007.53 1007.35 1007.14 1006.88 1006.57 1006.23 1005.88 1005.53 1005.22 1004.97 1004.80 1004.70 1004.66 1004.65 1004.64 1004.59 1004.48 1004.28 1004.01 1003.68 1003.35 1003.05 1002.86 1002.81 1002.95 1003.28 1003.79 1004.45 1005.19 1005.97 1006.73 1007.42 1008.04 1008.58 1009.05 1009.50
1008.21 1007.95 1007.71 1007.51 1007.35 1007.21 1007.10 1006.99 1006.85 1006.68 1006.46 1006.18 1005.85 1005.49 1005.14 1004.81 1004.55 1004.36 1004.26 1004.24 1004.28 1004.34 1004.38 1004.38 1004.32 1004.18 1003.99 1003.78 1003.59 1003.48 1003.48 1003.63 1003.94 1004.39 1004.96 1005.60 1006.27 1006.92 1007.52 1008.06 1008.54 1008.98 1009.41
1007.49 1007.23 1007.00 1006.81 1006.66 1006.55 1006.47 1006.39 1006.29 1006.15 1005.95 1005.69 1005.37 1005.01 1004.65 1004.31 1004.04 1003.85 1003.76 1003.77 1003.86 1004.00 1004.16 1004.29 1004.37 1004.40 1004.37 1004.32 1004.26 1004.25 1004.32 1004.49 1004.77 1005.16 1005.63 1006.16 1006.70 1007.22 1007.70 1008.13 1008.52 1008.90 1009.30
1006.73 1006.48 1006.26 1006.08 1005.95 1005.85 1005.79 1005.73 1005.66 1005.54 1005.36 1005.11 1004.80 1004.45 1004.08 1003.75 1003.47 1003.29 1003.23 1003.27 1003.43 1003.65 1003.91 1004.17 1004.41 1004.60 1004.74 1004.83 1004.92 1005.02 1005.16 1005.36 1005.63 1005.97 1006.37 1006.78 1007.20 1007.59 1007.95 1008.27 1008.58 1008.88 1009.22
1005.97 1005.73 1005.52 1005.34 1005.21 1005.12 1005.07 1005.02 1004.96 1004.85 1004.69 1004.46 1004.17 1003.83 1003.49 1003.17 1002.92 1002.77 1002.73 1002.82 1003.02 1003.31 1003.66 1004.03 1004.39 1004.72 1005.00 1005.24 1005.45 1005.66 1005.88 1006.12 1006.40 1006.72 1007.05 1007.39 1007.71 1008.00 1008.25 1008.49 1008.71 1008.95 1009.23
1005.26 1005.01 1004.78 1004.60 1004.46 1004.37 1004.31 1004.26 1004.20 1004.11 1003.97 1003.78 1003.52 1003.23 1002.94 1002.67 1002.46 1002.35 1002.35 1002.48 1002.72 1003.05 1003.45 1003.89 1004.33 1004.74 1005.12 1005.47 1005.79 1006.08 1006.38 1006.67 1006.98 1007.29 1007.60 1007.89 1008.16 1008.38 1008.58 1008.75 1008.91 1009.10 1009.34
1004.60 1004.33 1004.09 1003.89 1003.73 1003.62 1003.54 1003.48 1003.43 1003.36 1003.25 1003.10 1002.92 1002.70 1002.49 1002.30 1002.16 1002.11 1002.15 1002.31 1002.57 1002.91 1003.32 1003.77 1004.22 1004.68 1005.11 1005.51 1005.89 1006.26 1006.62 1006.97 1007.31 1007.65 1007.97 1008.25 1008.50 1008.71 1008.88 1009.02 1009.16 1009.32 1009.53
1004.00 1003.72 1003.45 1003.22 1003.03 1002.89 1002.78 1002.71 1002.66 1002.61 1002.56 1002.48 1002.38 1002.27 1002.16 1002.08 1002.04 1002.05 1002.15 1002.32 1002.57 1002.90 1003.27 1003.68 1004.10 1004.53 1004.96 1005.38 1005.79 1006.19 1006.60 1007.00 1007.39 1007.77 1008.13 1008.44 1008.71 1008.94 1009.12 1009.27 1009.41 1009.57 1009.77
1003.47 1003.16 1002.86 1002.59 1002.37 1002.19 1002.06 1001.97 1001.92 1001.90 1001.90 1001.90 1001.91 1001.93 1001.95 1001.99 1002.05 1002.15 1002.29 1002.48 1002.71 1002.98 1003.28 1003.62 1003.97 1004.33 1004.71 1005.10 1005.51 1005.93 1006.37 1006.81 1007.26 1007.69 1008.09 1008.46 1008.78 1009.05 1009.27 1009.46 1009.63 1009.81 1010.01
1002.97 1002.64 1002.31 1002.01 1001.74 1001.52 1001.36 1001.26 1001.21 1001.22 1001.27 1001.36 1001.49 1001.63 1001.79 1001.96 1002.13 1002.31 1002.50 1002.69 1002.89 1003.09 1003.31 1003.54 1003.80 1004.07 1004.38 1004.72 1005.11 1005.53 1005.98 1006.47 1006.96 1007.45 1007.91 1008.34 1008.71 1009.04 1009.32 1009.56 1009.77 1009.99 1010.22
1002.48 1002.13 1001.78 1001.45 1001.15 1000.90 1000.70 1000.57 1000.52 1000.55 1000.65 1000.82 1001.05 1001.31 1001.59 1001.88 1002.16 1002.41 1002.64 1002.83 1003.00 1003.14 1003.28 1003.41 1003.56 1003.75 1003.98 1004.28 1004.63 1005.05 1005.52 1006.03 1006.56 1007.10 1007.62 1008.11 1008.54 1008.93 1009.27 1009.56 1009.83 1010.09 1010.35
1001.96 1001.61 1001.26 1000.91 1000.59 1000.30 1000.07 999.91 999.85 999.88 1000.02 1000.24 1000.55 1000.90 1001.29 1001.67 1002.03 1002.35 1002.62 1002.82 1002.96 1003.05 1003.12 1003.18 1003.25 1003.37 1003.54 1003.80 1004.13 1004.55 1005.03 1005.57 1006.14 1006.72 1007.28 1007.81 1008.30 1008.74 1009.12 1009.47 1009.79 1010.10 1010.40
1001.39 1001.07 1000.73 1000.39 1000.05 999.73 999.47 999.29 999.20 999.22 999.36 999.61 999.96 1000.38 1000.83 1001.28 1001.71 1002.07 1002.37 1002.58 1002.71 1002.77 1002.80 1002.81 1002.84 1002.92 1003.07 1003.31 1003.64 1004.07 1004.57 1005.13 1005.72 1006.33 1006.92 1007.48 1008.00 1008.48 1008.91 1009.30 1009.66 1010.01 1010.35
1000.80 1000.51 1000.21 999.87 999.53 999.20 998.92 998.70 998.58 998.58 998.70 998.95 999.31 999.75 1000.23 1000.72 1001.18 1001.58 1001.89 1002.11 1002.25 1002.31 1002.33 1002.33 1002.36 1002.43 1002.59 1002.84 1003.18 1003.62 1004.14 1004.72 1005.33 1005.96 1006.56 1007.14 1007.68 1008.17 1008.63 1009.05 1009.45 1009.83 1010.21
1000.18 999.95 999.68 999.38 999.05 998.72 998.41 998.17 998.02 997.98 998.07 998.29 998.63 999.06 999.54 1000.04 1000.50 1000.91 1001.24 1001.48 1001.63 1001.71 1001.75 1001.77 1001.82 1001.93 1002.11 1002.39 1002.77 1003.23 1003.77 1004.36 1004.98 1005.61 1006.21 1006.79 1007.33 1007.83 1008.29 1008.73 1009.15 1009.57 1009.97
999.58 999.40 999.18 998.91 998.61 998.28 997.97 997.70 997.52 997.45 997.50 997.68 997.98 998.38 998.83 999.31 999.77 1000.18 1000.52 1000.77 1000.94 1001.05 1001.13 1001.20 1001.29 1001.44 1001.67 1001.99 1002.41 1002.90 1003.45 1004.05 1004.67 1005.28 1005.88 1006.44 1006.96 1007.45 1007.92 1008.36 1008.79 1009.21 1009.63
999.00 998.87 998.70 998.48 998.20 997.89 997.58 997.31 997.11 997.00 997.02 997.16 997.41 997.77 998.19 998.63 999.07 999.47 999.81 1000.07 1000.27 1000.42 1000.54 1000.66 1000.81 1001.02 1001.30 1001.66 1002.10 1002.62 1003.18 1003.78 1004.38 1004.98 1005.55 1006.08 1006.58 1007.06 1007.50 1007.94 1008.36 1008.78 1009.20
998.48 998.39 998.25 998.06 997.81 997.53 997.24 996.97 996.76 996.64 996.63 996.74 996.96 997.27 997.65 998.06 998.48 998.86 999.20 999.48 999.70 999.88 1000.04 1000.21 1000.42 1000.67 1000.99 1001.39 1001.86 1002.39 1002.95 1003.54 1004.12 1004.69 1005.23 1005.73 1006.20 1006.65 1007.07 1007.48 1007.89 1008.29 1008.69
998.03 997.95 997.83 997.66 997.43 997.18 996.91 996.66 996.46 996.34 996.32 996.41 996.61 996.89 997.24 997.63 998.02 998.39 998.73 999.01 999.25 999.47 999.67 999.88 1000.12 1000.42 1000.77 1001.19 1001.68 1002.21 1002.76 1003.33 1003.89 1004.43 1004.93 1005.40 1005.83 1006.24 1006.63 1007.01 1007.38 1007.75 1008.12
997.66 997.56 997.43 997.26 997.05 996.82 996.57 996.35 996.17 996.07 996.06 996.15 996.35 996.62 996.96 997.33 997.70 998.07 998.40 998.69 998.95 999.18 999.41 999.65 999.93 1000.25 1000.63 1001.07 1001.55 1002.08 1002.62 1003.17 1003.70 1004.20 1004.67 1005.10 1005.49 1005.86 1006.21 1006.54 1006.87 1007.19 1007.51
997.40 997.25 997.08 996.90 996.69 996.46 996.24 996.04 995.90 995.83 995.85 995.96 996.16 996.44 996.78 997.14 997.52 997.88 998.21 998.51 998.78 999.03 999.28 999.54 999.84 1000.18 1000.57 1001.01 1001.50 1002.01 1002.54 1003.06 1003.56 1004.03 1004.46 1004.85 1005.20 1005.52 1005.81 1006.10 1006.37 1006.64 1006.91
Thickness
5665 5664 5663 5663 5664 5665 5665 5667 5668 5670 5673 5676 5678 5680 5681 5682 5684 5683 5683 5684 5684 5684 5684 5684 5684 5684 5684 5684 5684 5684 5683 5682 5679 5684 5686 5688 5688 5687 5687 5687 5686 5686 5686
5650 5649 5648 5648 5648 5649 5650 5652 5654 5656 5659 5662 5666 5668 5670 5673 5675 5675 5676 5677 5677 5677 5677 5678 5678 5679 5679 5680 5679 5680 5680 5680 5678 5676 5678 5679 5679 5680 5679 5678 5678 5678 5676
5634 5633 5632 5631 5631 5632 5633 5635 5638 5641 5644 5648 5651 5655 5659 5662 5665 5667 5668 5670 5671 5671 5671 5672 5672 5673 5673 5674 5675 5676 5677 5677 5676 5673 5671 5671 5671 5672 5671 5670 5669 5668 5667
5618 5616 5615 5614 5614 5615 5616 5618 5621 5624 5627 5632 5636 5641 5645 5649 5654 5657 5660 5662 5663 5664 5665 5666 5666 5666 5667 5668 5670 5671 5671 5670 5669 5667 5665 5664 5663 5663 5662 5661 5658 5658 5658
5600 5598 5597 5597 5597 5598 5599 5601 5603 5606 5610 5615 5619 5624 5629 5635 5642 5646 5649 5653 5655 5656 5658 5659 5659 5659 5661 5661 5663 5664 5664 5663 5661 5660 5658 5656 5655 5653 5653 5653 5651 5650 5649
5581 5579 5578 5577 5578 5578 5580 5582 5585 5588 5591 5596 5600 5606 5612 5620 5627 5631 5637 5642 5646 5648 5649 5651 5652 5652 5653 5654 5656 5656 5656 5656 5655 5654 5652 5650 5648 5647 5647 5647 5645 5642 5639
5564 5562 5561 5560 5560 5561 5563 5564 5566 5568 5572 5576 5581 5587 5594 5603 5608 5615 5623 5629 5636 5639 5642 5643 5646 5647 5647 5648 5648 5648 5647 5648 5648 5648 5646 5645 5643 5642 5641 5639 5638 5637 5637
5550 5549 5548 5547 5547 5548 5548 5548 5549 5551 5553 5557 5563 5569 5577 5585 5592 5600 5607 5616 5624 5630 5634 5636 5638 5638 5640 5640 5640 5639 5638 5638 5640 5640 5640 5639 5638 5637 5636 5635 5633 5631 5631
5541 5540 5539 5538 5537 5537 5537 5537 5538 5538 5539 5542 5548 5554 5561 5569 5576 5583 5590 5601 5611 5619 5625 5628 5630 5630 5630 5632 5632 5630 5629 5628 5629 5631 5631 5630 5630 5630 5629 5627 5624 5623 5621
5535 5534 5533 5532 5531 5530 5530 5530 5530 5530 5531 5533 5538 5543 5549 5555 5561 5569 5575 5587 5598 5607 5614 5619 5621 5622 5621 5623 5624 5623 5621 5620 5621 5621 5620 5621 5621 5621 5621 5621 5620 5618 5617
5530 5529 5527 5526 5526 5526 5526 5526 5525 5525 5526 5528 5531 5536 5541 5546 5551 5556 5563 5573 5585 5594 5603 5608 5611 5612 5613 5615 5617 5616 5614 5614 5613 5613 5613 5612 5612 5612 5613 5614 5615 5616 5614
5523 5522 5521 5520 5520 5522 5522 5522 5521 5521 5522 5525 5527 5531 5535 5540 5543 5547 5552 5561 5571 5581 5592 5600 5603 5602 5604 5606 5608 5607 5606 5607 5607 5606 5605 5605 5605 5604 5605 5606 5609 5611 5611
5516 5515 5514 5514 5514 5515 5515 5516 5517 5518 5519 5522 5525 5527 5530 5534 5536 5538 5543 5551 5560 5570 5580 5590 5592 5592 5595 5598 5599 5599 5600 5601 5601 5600 5599 5599 5599 5598 5598 5599 5601 5604 5604
5509 5509 5508 5507 5509 5510 5510 5512 5513 5515 5516 5519 5521 5523 5525 5527 5530 5532 5536 5543 5551 5560 5570 5577 5581 5584 5590 5591 5591 5592 5595 5597 5597 5596 5595 5594 5594 5593 5593 5595 5596 5596 5596
5502 5502 5502 5501 5502 5504 5506 5508 5510 5512 5513 5514 5517 5519 5520 5521 5523 5526 5531 5536 5545 5554 5561 5567 5572 5578 5584 5585 5587 5589 5591 5592 5593 5593 5591 5590 5589 5590 5590 5592 5593 5593 5592
5496 5496 5496 5496 5497 5499 5501 5504 5506 5507 5509 5510 5511 5513 5516 5516 5516 5518 5523 5529 5537 5544 5552 5561 5569 5576 5580 5582 5584 5586 5587 5589 5591 5590 5589 5589 5588 5588 5589 5591 5592 5592 5590
5489 5489 5489 5490 5491 5493 5495 5497 5500 5504 5506 5507 5508 5509 5510 5510 5511 5513 5517 5523 5529 5537 5548 5557 5565 5572 5578 5581 5583 5585 5586 5588 5589 5589 5588 5588 5588 5588 5588 5589 5591 5591 5590
5486 5485 5485 5486 5487 5488 5490 5493 5496 5499 5503 5507 5507 5506 5507 5506 5508 5510 5513 5518 5525 5533 5546 5555 5563 5571 5577 5581 5583 5585 5587 5588 5588 5588 5588 5589 5589 5589 5589 5589 5589 5589 5588
5483 5482 5482 5483 5483 5485 5487 5490 5493 5497 5500 5504 5507 5505 5503 5503 5504 5508 5512 5521 5530 5537 5547 5556 5564 5571 5577 5581 5584 5586 5587 5587 5588 5588 5589 5589 5589 5589 5588 5588 5588 5586 5586
5482 5481 5481 5481 5482 5485 5487 5490 5493 5496 5500 5504 5507 5506 5503 5504 5508 5510 5516 5525 5535 5542 5551 5558 5566 5573 5578 5582 5584 5586 5587 5586 5587 5588 5588 5588 5589 5589 5588 5587 5586 5585 5585
5483 5483 5483 5484 5485 5487 5489 5492 5495 5498 5502 5505 5508 5508 5508 5511 5515 5519 5523 5531 5540 5548 5555 5562 5569 5575 5579 5582 5586 5587 5588 5587 5587 5588 5589 5588 5589 5588 5588 5587 5586 5585 5584
5486 5487 5487 5488 5489 5491 5493 5496 5499 5501 5504 5508 5508 5508 5508 5515 5520 5524 5530 5537 5546 5553 5560 5566 5573 5578 5582 5585 5587 5588 5589 5589 5589 5589 5589 5588 5588 5588 5587 5586 5585 5584 5582
5493 5493 5493 5494 5495 5496 5498 5501 5504 5506 5508 5510 5512 5514 5516 5522 5527 5532 5537 5544 5551 5557 5565 5570 5576 5581 5584 5587 5590 5591 5592 5591 5592 5591 5590 5589 5588 5587 5586 5585 5583 5581 5579
5501 5501 5501 5502 5503 5505 5506 5508 5509 5511 5514 5516 5519 5522 5526 5530 5535 5540 5545 5551 5557 5563 5569 5574 5579 5583 5586 5588 5591 5594 5595 5595 5595 5593 5592 5590 5588 5586 5585 5583 5581 5579 5576
5509 5509 5510 5511 5512 5513 5514 5515 5517 5519 5522 5525 5528 5531 5535 5539 5544 5549 5554 5559 5564 5570 5574 5578 5582 5585 5587 5589 5592 5594 5594 5594 5594 5593 5592 5589 5587 5585 5583 5581 5578 5576 5573
5519 5519 5520 5521 5522 5523 5525 5526 5528 5531 5533 5536 5540 5542 5546 5550 5554 5559 5563 5567 5571 5575 5578 5582 5585 5588 5590 5591 5593 5591 5590 5590 5590 5589 5589 5587 5584 5582 5580 5577 5575 5572 5570